SL-16 DEB, 43353

Orbit data source: Space-Track

SL-16 DEB, 43353 is space debris in LEO originally from a launch on Tue, 31 Oct 1995 UTC launched from the Tyuratam Missile And Space Complex (TTMTR). Debris objects in space refer to the collection of defunct objects orbiting the Earth. Examples of debris include non-operational satellites, rocket bodies, and fragments generated from explosions, collisions, or faulty payload assembly.

Loading next visibility...
SL-16 DEB details
Identifier
43353, 1995-058N
Orbit
LEO
Last TLE update12 hours ago
Origin
Flag of CISRVSN RF (CIS)
ManufacturerUnknown
MissionSpacecraft
Bus & MotorUnknown
MassUnknown
Launch date (UTC)
1995-10-31 (29 years ago)
Launch vehicleUnknown
Launch site
Tyuratam Missile And Space Complex (TTMTR)
Object type
Payload
Rocket body
Debris
Shape & HBRUnknown
Radar Cross SectionSmall (<0.1 m²)

Expand to show TLE details & history

TLE from 12 hours ago
0 SL-16 DEB
1 43353U 95058N   24339.91060365  .00033076  00000-0  86458-2 0  9998
2 43353  70.9956 278.9869 0024141 333.3620  26.6278 14.49044176574228
Epoch: 2024-12-04T21:51Z
Definitive object data (Epoch: 2024-12-04T21:51:16.155Z)
Latitude-0.00004°
Longitude-123.0294°
Altitude715.879 km
Speed7.506 km/s
True Right ascension18h 35m 56s
True Declination0° 00' 00"
Sunlit
Object was in daylight at TLE epoch
Visualization TLE readout
Latitude57.27383°
Longitude-91.91513°
Altitude737.743 km
Speed7.492 km/s
Apparent Right ascension20h 08m 03s
Apparent Declination12° 17' 26"
Sunlit
Object is in daylight
Visualization observer readout
Local Sidereal Time07:42:37
Azimuth352.166° N
Elevation-37.46°
Doppler factor1
Orbital elements
Apogee altitude743.816 km
Perigee altitude709.512 km
Semi-major axis7,104.801 km
Eccentricity0.0024141
Inclination70.9956°
RAAN278.9869°
Arg. of periapsis333.362°
True anomaly26.75212°
Mean anomaly26.6278°
Eccentric anomaly26.68993°
Mean motion3.62423 °/min
BSTAR0.0086458
Orbital period99.33 mins
Loading maneuver chart data...
Loading historical data...
Loading historical data...
Loading historical data...
Loading historical data...
Loading historical data...
Loading historical data...
Loading historical data...

SL-16 DEB Visibility forecast

Observer location: undefined°, undefined

Span
Click to sort rows by Start time (UTC) header in descending order
Start Az.
Max El. time (UTC)
Max El. Az.
Max El.
End time (UTC)
End Az.
8 mins2024-12-05 21:10:20.807Z184.975° SSW2024-12-05 21:14:20.807Z105.769° ESE40.551°2024-12-05 21:18:20.807Z33.007° NE
5 mins2024-12-05 22:54:20.807Z279.987° WNW2024-12-05 22:56:20.807Z308.422° NW16.932°2024-12-05 22:59:20.807Z346.962° N
5 mins2024-12-06 05:53:20.807Z20.272° NNE2024-12-06 05:55:20.807Z47.743° ENE18.188°2024-12-06 05:58:20.807Z89.681° E
8 mins2024-12-06 07:34:20.807Z322.069° NNW2024-12-06 07:37:20.807Z266.176° W39.145°2024-12-06 07:42:20.807Z175.346° S
|